SCP
1 1 1 2 2 1 1 0 -0 -0 -0 -0 -0 0 0 0 -0 -0 -0 -0 -0 -0 -0 -0 -0 -0 -0 -0 -0 0 -0 -0
1 1 1 1 2 1 1 1 0 0 -0 0 0 0 0 0 0 -0 -0 -0 -0 -0 -0 -0 -0 -0 -0 -0 -0 -0 -0 -0
1 1 1 1 1 1 1 1 1 0 0 0 0 0 0 0 0 0 0 -0 -0 -0 -0 -0 -0 -0 -0 -0 0 0 0 0
1 1 1 1 1 1 1 1 1 1 1 0 0 0 0 0 0 0 0 0 -0 -0 -0 -0 -0 0 0 -0 0 0 0 0
0 1 1 1 2 1 1 1 1 1 1 1 0 0 0 0 0 0 0 0 0 0 0 0 0 0 0 0 0 0 0 0
0 0 0 0 1 1 2 2 2 2 1 1 1 1 0 0 0 0 0 0 0 0 0 0 0 0 0 0 0 0 0 0
0 0 0 0 1 1 1 1 2 2 2 1 2 1 0 0 0 0 0 0 0 0 0 0 0 0 0 0 0 0 0 0
0 0 0 0 0 1 2 2 2 1 1 1 1 1 1 0 0 0 0 0 0 0 0 0 0 0 0 0 0 0 0 0
0 0 0 0 -0 1 1 2 2 2 1 1 1 1 1 0 0 0 0 0 0 0 0 0 0 0 0 0 0 0 0 0
0 0 0 0 0 1 1 2 2 2 1 2 1 1 1 0 0 0 0 0 0 0 0 0 0 0 0 0 0 0 0 0
0 1 0 0 0 1 1 2 2 2 1 2 1 1 1 1 0 0 0 0 0 0 0 0 0 0 0 0 0 0 0 0
0 1 1 1 2 2 2 2 2 1 1 1 1 1 1 1 0 0 0 0 0 0 0 0 0 0 0 0 0 0 0 0
0 1 1 2 2 2 2 2 2 2 1 1 1 1 0 0 0 0 0 0 0 0 0 0 0 0 0 0 0 0 0 0
0 0 1 2 3 2 2 2 2 2 1 1 1 0 0 0 0 0 0 0 0 0 0 0 0 0 0 0 0 0 0 0
0 0 1 1 2 2 1 1 1 1 1 0 0 0 0 0 0 0 0 0 0 0 0 0 0 0 0 0 0 0 0 0
0 0 0 1 1 1 1 1 1 1 1 1 0 0 0 0 0 0 0 0 0 0 0 0 0 0 0 0 0 0 0 0
0 0 0 1 2 2 1 1 1 1 1 0 0 0 0 0 0 0 0 0 0 0 0 0 0 0 0 0 0 0 0 0
0 0 1 1 2 2 1 1 1 1 1 1 0 0 0 0 0 0 0 0 0 0 0 0 0 0 0 0 0 0 0 0
0 0 0 0 1 1 2 1 1 1 1 1 1 0 0 0 0 0 0 0 0 0 0 0 0 0 0 0 0 0 0 0
0 0 0 0 0 1 2 2 2 2 2 2 1 0 0 0 0 0 0 0 0 0 0 0 0 0 0 0 0 0 0 0
Wind_Speed_500mb
49 63 66 67 66 65 64 70 73 74 72 69 65 58 51 48 47 44 40 36 33 31 28 29 30 30 27 24 22 25 25 25
46 60 68 70 68 66 64 69 69 71 69 67 64 57 53 50 49 45 40 37 35 33 31 32 33 30 27 23 21 24 26 25
47 56 69 68 62 71 67 68 70 71 70 67 62 59 55 51 50 45 40 39 36 35 33 35 36 32 27 23 22 23 24 22
54 56 61 69 68 67 73 73 72 73 75 71 66 59 57 52 56 47 43 40 38 38 37 36 38 36 32 26 21 25 23 23
56 56 62 65 67 77 78 68 69 71 75 77 69 57 51 49 58 53 49 46 46 44 43 43 40 37 35 23 27 25 24 23
57 59 64 69 71 72 81 80 77 71 80 80 63 62 56 52 57 58 58 54 52 53 52 44 42 39 37 32 29 25 25 25
55 58 65 69 74 72 78 84 89 91 89 88 76 63 63 60 60 65 61 54 52 51 48 46 45 43 39 35 31 28 29 27
55 59 61 68 72 75 83 82 86 91 93 91 87 76 69 71 69 70 66 57 52 50 50 47 45 42 41 38 33 30 30 30
59 58 63 66 71 73 77 83 86 98 96 94 95 86 84 75 77 74 74 62 59 53 51 48 45 43 40 39 36 34 32 32
61 60 66 71 71 72 71 72 88 96 100 100 99 97 91 85 79 81 74 70 65 56 56 53 49 47 45 41 37 35 35 35
69 66 71 74 71 70 72 78 80 94 101 104 103 102 98 91 84 78 83 77 69 61 56 57 55 51 46 42 39 36 36 34
75 73 73 74 72 75 76 77 85 90 99 103 103 104 107 99 75 85 86 80 72 66 62 56 54 51 48 42 37 36 35 36
72 77 79 74 81 88 93 97 95 96 101 102 104 107 110 106 102 95 90 90 84 82 70 64 58 57 54 53 50 42 41 38
71 73 74 76 86 93 92 97 100 104 104 106 107 107 110 110 112 107 98 94 93 91 86 72 63 74 66 60 50 54 53 47
59 69 70 72 85 76 80 82 88 92 101 109 113 111 110 112 115 114 107 104 105 103 102 102 89 84 65 45 35 35 69 66
46 56 63 66 75 79 88 95 98 108 109 113 114 111 112 110 115 118 116 114 111 109 110 111 98 105 83 71 46 43 44 43
33 40 54 61 69 83 84 90 90 95 103 100 110 114 113 113 115 122 124 122 120 117 116 118 117 112 116 101 61 54 44 38
18 34 37 51 65 75 80 87 92 89 93 103 102 110 112 116 115 119 128 126 127 126 122 122 122 122 112 96 96 92 69 47
6 10 23 39 53 61 76 80 88 94 91 102 99 99 109 115 118 122 126 133 133 133 131 128 127 130 123 117 106 90 64 61
5 2 7 17 38 62 66 81 82 87 88 92 97 107 111 108 112 116 120 125 134 136 138 135 130 131 126 120 106 98 91 71
Wind_Direction_500mb
199 195 195 197 198 196 195 193 193 193 194 194 195 193 194 193 194 192 190 184 185 186 180 170 165 158 151 142 136 130 118 116
210 200 197 197 199 199 197 196 196 195 196 196 197 197 197 195 196 197 192 186 186 186 179 173 168 163 157 147 135 126 123 116
211 208 199 199 198 199 199 198 198 199 199 199 199 200 197 197 199 200 195 190 188 187 182 177 171 169 162 152 130 134 124 125
210 209 206 201 201 200 199 199 199 198 200 200 201 198 194 191 203 200 196 193 190 189 185 181 176 174 168 159 144 144 132 134
215 215 207 204 208 202 201 198 197 198 202 202 198 194 190 186 201 196 195 193 189 187 183 182 175 174 175 160 164 140 137 140
215 216 211 206 206 209 204 202 201 198 205 202 191 193 192 192 196 194 194 190 190 187 185 177 181 177 174 176 163 154 146 147
215 217 215 210 209 209 213 210 209 209 209 205 202 193 197 195 196 198 195 187 189 184 181 183 184 184 181 179 168 159 152 151
214 217 222 214 214 213 216 216 214 215 213 209 208 203 202 201 199 200 199 192 188 184 186 186 185 182 181 178 170 165 155 155
217 222 219 217 212 212 215 217 216 218 217 212 213 210 213 210 207 207 206 197 193 187 188 184 182 180 179 177 174 169 166 162
219 219 217 217 215 210 210 215 216 220 220 217 217 215 218 214 210 211 206 200 198 191 187 183 184 182 180 180 176 176 174 169
221 218 221 220 215 213 213 211 221 221 222 221 221 218 220 217 213 212 210 204 199 193 188 188 185 184 182 180 181 180 178 175
224 222 221 220 218 214 214 211 221 224 224 224 221 222 222 220 210 212 212 207 202 197 193 189 188 184 179 178 181 185 185 185
225 220 221 217 215 214 218 220 222 226 227 227 224 222 222 221 221 220 217 213 210 207 197 187 185 183 173 174 177 183 192 194
223 223 221 218 219 223 227 228 226 227 227 227 227 224 224 222 222 223 220 214 212 210 202 191 190 187 181 180 177 191 187 191
222 220 219 219 223 216 222 223 221 220 223 227 229 230 227 224 224 225 222 220 219 216 213 210 194 193 199 184 174 201 198 198
217 220 218 219 222 218 217 216 212 221 224 230 232 235 231 226 225 226 226 225 223 222 219 217 210 206 200 205 209 195 187 193
218 213 216 215 222 221 218 217 219 221 222 224 228 232 234 232 228 227 227 226 228 227 223 221 222 220 215 206 208 210 198 191
204 207 211 215 220 226 226 221 220 218 220 221 225 230 233 233 232 230 230 229 230 230 230 229 224 226 219 212 209 208 203 200
127 177 206 210 221 221 231 233 229 225 226 227 223 225 230 231 233 231 232 231 230 232 231 231 229 229 224 219 216 215 212 209
119 142 192 211 218 222 227 235 235 231 230 230 230 230 238 238 235 234 236 234 232 232 233 233 233 229 226 221 218 217 213 213
Wind_Speed_850mb
49 63 66 67 66 65 64 70 73 74 72 69 65 58 51 48 47 44 40 36 33 31 28 29 30 30 27 24 22 25 25 25
46 60 68 70 68 66 64 69 69 71 69 67 64 57 53 50 49 45 40 37 35 33 31 32 33 30 27 23 21 24 26 25
47 56 69 68 62 71 67 68 70 71 70 67 62 59 55 51 50 45 40 39 36 35 33 35 36 32 27 23 22 23 24 22
54 56 61 69 68 67 73 73 72 73 75 71 66 59 57 52 56 47 43 40 38 38 37 36 38 36 32 26 21 25 23 23
56 56 62 65 67 77 78 68 69 71 75 77 69 57 51 49 58 53 49 46 46 44 43 43 40 37 35 23 27 25 24 23
57 59 64 69 71 72 81 80 77 71 80 80 63 62 56 52 57 58 58 54 52 53 52 44 42 39 37 32 29 25 25 25
55 58 65 69 74 72 78 84 89 91 89 88 76 63 63 60 60 65 61 54 52 51 48 46 45 43 39 35 31 28 29 27
55 59 61 68 72 75 83 82 86 91 93 91 87 76 69 71 69 70 66 57 52 50 50 47 45 42 41 38 33 30 30 30
59 58 63 66 71 73 77 83 86 98 96 94 95 86 84 75 77 74 74 62 59 53 51 48 45 43 40 39 36 34 32 32
61 60 66 71 71 72 71 72 88 96 100 100 99 97 91 85 79 81 74 70 65 56 56 53 49 47 45 41 37 35 35 35
69 66 71 74 71 70 72 78 80 94 101 104 103 102 98 91 84 78 83 77 69 61 56 57 55 51 46 42 39 36 36 34
75 73 73 74 72 75 76 77 85 90 99 103 103 104 107 99 75 85 86 80 72 66 62 56 54 51 48 42 37 36 35 36
72 77 79 74 81 88 93 97 95 96 101 102 104 107 110 106 102 95 90 90 84 82 70 64 58 57 54 53 50 42 41 38
71 73 74 76 86 93 92 97 100 104 104 106 107 107 110 110 112 107 98 94 93 91 86 72 63 74 66 60 50 54 53 47
59 69 70 72 85 76 80 82 88 92 101 109 113 111 110 112 115 114 107 104 105 103 102 102 89 84 65 45 35 35 69 66
46 56 63 66 75 79 88 95 98 108 109 113 114 111 112 110 115 118 116 114 111 109 110 111 98 105 83 71 46 43 44 43
33 40 54 61 69 83 84 90 90 95 103 100 110 114 113 113 115 122 124 122 120 117 116 118 117 112 116 101 61 54 44 38
18 34 37 51 65 75 80 87 92 89 93 103 102 110 112 116 115 119 128 126 127 126 122 122 122 122 112 96 96 92 69 47
6 10 23 39 53 61 76 80 88 94 91 102 99 99 109 115 118 122 126 133 133 133 131 128 127 130 123 117 106 90 64 61
5 2 7 17 38 62 66 81 82 87 88 92 97 107 111 108 112 116 120 125 134 136 138 135 130 131 126 120 106 98 91 71
Wind_Direction_850mb
199 195 195 197 198 196 195 193 193 193 194 194 195 193 194 193 194 192 190 184 185 186 180 170 165 158 151 142 136 130 118 116
210 200 197 197 199 199 197 196 196 195 196 196 197 197 197 195 196 197 192 186 186 186 179 173 168 163 157 147 135 126 123 116
211 208 199 199 198 199 199 198 198 199 199 199 199 200 197 197 199 200 195 190 188 187 182 177 171 169 162 152 130 134 124 125
210 209 206 201 201 200 199 199 199 198 200 200 201 198 194 191 203 200 196 193 190 189 185 181 176 174 168 159 144 144 132 134
215 215 207 204 208 202 201 198 197 198 202 202 198 194 190 186 201 196 195 193 189 187 183 182 175 174 175 160 164 140 137 140
215 216 211 206 206 209 204 202 201 198 205 202 191 193 192 192 196 194 194 190 190 187 185 177 181 177 174 176 163 154 146 147
215 217 215 210 209 209 213 210 209 209 209 205 202 193 197 195 196 198 195 187 189 184 181 183 184 184 181 179 168 159 152 151
214 217 222 214 214 213 216 216 214 215 213 209 208 203 202 201 199 200 199 192 188 184 186 186 185 182 181 178 170 165 155 155
217 222 219 217 212 212 215 217 216 218 217 212 213 210 213 210 207 207 206 197 193 187 188 184 182 180 179 177 174 169 166 162
219 219 217 217 215 210 210 215 216 220 220 217 217 215 218 214 210 211 206 200 198 191 187 183 184 182 180 180 176 176 174 169
221 218 221 220 215 213 213 211 221 221 222 221 221 218 220 217 213 212 210 204 199 193 188 188 185 184 182 180 181 180 178 175
224 222 221 220 218 214 214 211 221 224 224 224 221 222 222 220 210 212 212 207 202 197 193 189 188 184 179 178 181 185 185 185
225 220 221 217 215 214 218 220 222 226 227 227 224 222 222 221 221 220 217 213 210 207 197 187 185 183 173 174 177 183 192 194
223 223 221 218 219 223 227 228 226 227 227 227 227 224 224 222 222 223 220 214 212 210 202 191 190 187 181 180 177 191 187 191
222 220 219 219 223 216 222 223 221 220 223 227 229 230 227 224 224 225 222 220 219 216 213 210 194 193 199 184 174 201 198 198
217 220 218 219 222 218 217 216 212 221 224 230 232 235 231 226 225 226 226 225 223 222 219 217 210 206 200 205 209 195 187 193
218 213 216 215 222 221 218 217 219 221 222 224 228 232 234 232 228 227 227 226 228 227 223 221 222 220 215 206 208 210 198 191
204 207 211 215 220 226 226 221 220 218 220 221 225 230 233 233 232 230 230 229 230 230 230 229 224 226 219 212 209 208 203 200
127 177 206 210 221 221 231 233 229 225 226 227 223 225 230 231 233 231 232 231 230 232 231 231 229 229 224 219 216 215 212 209
119 142 192 211 218 222 227 235 235 231 230 230 230 230 238 238 235 234 236 234 232 232 233 233 233 229 226 221 218 217 213 213